Regional Weather Roundup
Issued by NWS Sioux Falls, SD

Home | Current Version | Previous Version | Text Only | Print | Product List | Glossary On
Versions: 1 2 3 4 5 6 7 8 9 10 11 12 13 14 15 16 17 18 19 20 21 22 23 24 25 26 27 28 29 30 31 32 33 34 35 36 37 38 39 40 41 42 43 44 45 46 47 48 49 50
000
ASUS43 KFSD 291310
RWRFSD

WEATHER ROUNDUP FOR SE SOUTH DAKOTA/SW MINNESOTA/NW IOWA
NATIONAL WEATHER SERVICE SIOUX FALLS SD
800 AM CDT FRI APR 29 2016

NOTE: "FAIR" INDICATES FEW OR NO CLOUDS BELOW 12,000 FEET WITH NO
SIGNIFICANT WEATHER AND OR OBSTRUCTIONS TO VISIBILITY.


SDZ038>040-050-052>070-291400-
SOUTHEAST SOUTH DAKOTA

CITY           SKY/WX    TMP DP  RH WIND       PRES   REMARKS
BROOKINGS      CLOUDY    38  37  97 NE3       30.16R
CHAMBERLAIN    CLOUDY    40  38  94 E5        30.15S
HURON          CLOUDY    40  37  89 NE7       30.16S
MADISON        CLOUDY    37  37 100 NE8       30.15F
MITCHELL       CLOUDY    40  38  93 N6        30.16F
SIOUX FALLS    CLOUDY    40  36  86 NE8       30.15S
WINNER         CLOUDY    40  36  86 E7        30.13R
YANKTON        CLOUDY    41  37  87 NE6       30.14R
$$

MNZ071-072-080-081-089-090-097-098-291400-
SOUTHWEST MINNESOTA

CITY           SKY/WX    TMP DP  RH WIND       PRES   REMARKS
FAIRMONT       CLOUDY    39  28  65 N9        30.16R
JACKSON        CLOUDY    37  34  87 NE7       30.16R
LUVERNE        CLOUDY    37  34  87 NE6       30.16R
MARSHALL       CLOUDY    39  38  96 NE5       30.19R
MONTEVIDEO     SUNNY     43  43 100 CALM      30.21S
PIPESTONE      CLOUDY    37  36  93 NE5       30.14S
REDWOOD FALLS  MOSUNNY   40  36  86 E5        30.18F
TRACY          CLOUDY    38  37  97 NE6       30.18S
WINDOM         CLOUDY    37  36  93 CALM      30.16F
WORTHINGTON    CLOUDY    38  35  89 NE9       30.15F
$$

IAZ001>003-012>014-020>022-031-032-NEZ013-014-SDZ071-291400-
NORTHWEST IOWA

CITY           SKY/WX    TMP DP  RH WIND       PRES   REMARKS
CHEROKEE       CLOUDY    41  40  98 N7        30.13F
DENISON        CLOUDY    43  41  93 N9        30.07F
ESTHERVILLE    CLOUDY    39  37  92 N8        30.15R
LE MARS        CLOUDY    41  39  93 N6        30.14F
ORANGE CITY    CLOUDY    39  37  93 NE5       30.12F
SHELDON        CLOUDY    39  39 100 NE10      30.13S
SIOUX CITY     CLOUDY    44  38  79 N12       30.11F
SPENCER        CLOUDY    40  37  89 NE10      30.14F
STORM LAKE     CLOUDY    41  39  93 NE8       30.12F
$$

ABBREVIATIONS USED IN REMARKS
   TC - TEMPERATURE IN CELSIUS
  WCI - WIND CHILL INDEX
   HX - HEAT INDEX
  VSB - VISIBILITY




USA.gov is the U.S. government's official web portal to all federal, state and local government web resources and services.